This demonstration page uses our WeatherBlox Daily Observations layout. Learn more.

Left ArrowRight Arrow

Hourly Observations for April 7, 2020

Temp ( °F °C ) Dew Point ( °F °C ) Humidity (%) Winds ( mph kmh ) Pressure ( in mb ) Visibility ( mi km ) Precip ( " mm )
12:15 am 00:15 Clear 53 11.6 44 6.6 72 72 SSE 7 11 29.73 1007 10 16 N/A
12:35 am 00:35 Clear 52 11.2 44 6.5 73 73 SSE 5 7 29.73 1007 10 16 N/A
12:55 am 00:55 Clear 51 10.6 43 6.3 75 75 SSE 7 11 29.74 1007 7 11 N/A
1:15 am 01:15 Clear 53 11.6 45 7.1 74 74 S 6 9 29.72 1006 10 16 N/A
1:35 am 01:35 Clear 53 11.5 45 7.3 76 76 S 6 9 29.72 1006 10 16 N/A
1:55 am 01:55 Clear 53 11.4 46 7.8 79 79 S 6 9 29.72 1006 10 16 N/A
2:15 am 02:15 Clear 51 10.7 46 7.6 81 81 S 5 7 29.72 1006 10 16 N/A
2:35 am 02:35 Clear 51 10.5 46 7.8 84 84 S 7 11 29.72 1006 10 16 N/A
2:55 am 02:55 Clear 50 10.2 46 7.8 85 85 S 6 9 29.71 1006 7 11 N/A
3:15 am 03:15 Clear 49 9.6 46 7.9 89 89 S 7 11 29.71 1006 10 16 N/A
3:35 am 03:35 Clear 50 10.2 47 8.5 89 89 SSW 8 13 29.70 1006 10 16 N/A
3:55 am 03:55 Clear 51 10.6 48 9.1 91 91 SSW 6 9 29.70 1006 10 16 N/A
4:15 am 04:15 Clear 48 9 46 7.7 92 92 N N/A 29.71 1006 10 16 N/A
4:35 am 04:35 Clear 50 9.8 48 8.7 93 93 NW 3 6 29.70 1006 10 16 N/A
4:55 am 04:55 Clear 46 7.6 44 6.7 94 94 NW 6 9 29.75 1008 10 16 N/A
5:15 am 05:15 Clear 48 8.9 45 7 88 88 W 3 6 29.74 1007 10 16 N/A
5:35 am 05:35 Clear 48 9 44 6.8 86 86 W 7 11 29.75 1008 10 16 N/A
5:55 am 05:55 Clear 46 7.6 42 5.4 86 86 WNW 8 13 29.76 1008 10 16 N/A
6:15 am 06:15 Clear 46 7.5 42 5.4 87 87 NW 8 13 29.77 1008 10 16 N/A
6:35 am 06:35 Clear 43 5.9 39 4.1 88 88 NW 7 11 29.80 1009 10 16 N/A
6:55 am 06:55 Clear 44 6.6 41 4.9 89 89 NW 7 11 29.79 1009 10 16 N/A
7:15 am 07:15 Sunny 44 6.7 40 4.7 87 87 NW 9 15 29.81 1010 10 16 N/A
7:35 am 07:35 Sunny 43 6.1 40 4.6 90 90 NW 7 11 29.82 1010 10 16 N/A
7:55 am 07:55 Sunny 45 7.3 42 5.5 88 88 NW 7 11 29.82 1010 10 16 N/A
8:15 am 08:15 Sunny 48 8.8 44 6.5 86 86 NW 5 7 29.81 1010 10 16 N/A
8:35 am 08:35 Sunny 51 10.5 45 7.3 81 81 NW 5 7 29.81 1009 10 16 N/A
8:55 am 08:55 Sunny 54 12.3 45 7 70 70 NW 7 11 29.80 1009 10 16 N/A
9:15 am 09:15 Sunny 57 14.1 43 6.2 59 59 NNW 9 15 29.79 1009 10 16 N/A
9:35 am 09:35 Sunny 60 15.7 42 5.5 51 51 NNW 10 17 29.78 1009 10 16 N/A
9:55 am 09:55 Sunny 64 17.9 40 4.3 41 41 NNW 14 22 29.77 1008 10 16 N/A
10:15 am 10:15 Sunny 68 19.8 38 3.3 34 34 NNW 15 24 29.75 1007 10 16 N/A
10:35 am 10:35 Sunny 71 21.5 37 2.9 29 29 NNW 16 26 29.75 1007 10 16 N/A
10:55 am 10:55 Sunny 73 22.8 37 2.6 27 27 N 15 24 29.73 1007 10 16 N/A
11:15 am 11:15 Sunny 76 24.2 37 2.8 25 25 NNW 13 20 29.72 1007 10 16 N/A
11:35 am 11:35 Sunny 77 25.1 35 1.7 22 22 NW 14 22 29.72 1006 10 16 N/A
11:55 am 11:55 Sunny 78 25.8 32 -0.1 18 18 NW 15 24 29.70 1006 10 16 N/A
12:15 pm 12:15 Sunny 79 25.9 31 -0.6 17 17 WNW 15 24 29.70 1006 10 16 N/A
12:35 pm 12:35 Sunny 80 26.4 31 -0.6 17 17 NW 16 26 29.70 1006 10 16 N/A
12:55 pm 12:55 Sunny 80 26.5 30 -1 16 16 NW 17 28 29.70 1006 10 16 N/A
1:15 pm 13:15 Sunny 82 27.6 30 -1 15 15 NW 21 33 29.68 1005 10 16 N/A
1:35 pm 13:35 Sunny 81 27.1 29 -1.6 15 15 NW 21 33 29.68 1005 10 16 N/A
1:55 pm 13:55 Sunny 81 27.1 30 -0.9 16 16 WNW 22 35 29.68 1005 10 16 N/A
2:15 pm 14:15 Sunny 81 27.3 30 -1.3 15 15 NW 20 31 29.67 1005 10 16 N/A
2:35 pm 14:35 Sunny 81 27.3 31 -0.8 16 16 NW 18 30 29.66 1004 10 16 N/A
2:55 pm 14:55 Sunny 82 28 29 -1.5 14 14 WNW 17 28 29.64 1004 10 16 N/A
3:15 pm 15:15 Sunny 82 27.7 29 -1.8 14 14 WNW 14 22 29.65 1004 10 16 N/A
3:35 pm 15:35 Sunny 82 27.9 28 -2.3 14 14 NW 15 24 29.63 1004 10 16 N/A
3:55 pm 15:55 Sunny 83 28.4 29 -1.9 14 14 W 21 33 29.63 1003 10 16 N/A
4:15 pm 16:15 Sunny 82 28 28 -2.4 13 13 NW 20 31 29.63 1004 10 16 N/A
4:35 pm 16:35 Sunny 83 28.2 28 -2.3 13 13 W 23 37 29.63 1003 10 16 N/A
4:55 pm 16:55 Sunny 82 27.6 27 -2.7 14 14 WNW 21 33 29.64 1004 10 16 N/A
5:15 pm 17:15 Sunny 82 27.5 28 -2.2 14 14 WNW 20 31 29.64 1004 10 16 N/A
5:35 pm 17:35 Sunny 82 27.7 28 -2.4 14 14 W 22 35 29.63 1003 10 16 N/A
5:55 pm 17:55 Sunny 81 27.1 27 -2.7 14 14 W 16 26 29.63 1003 10 16 N/A
6:15 pm 18:15 Sunny 81 27 28 -2.5 14 14 WNW 17 28 29.64 1004 10 16 N/A
6:35 pm 18:35 Sunny 80 26.6 29 -1.9 15 15 NW 14 22 29.64 1004 10 16 N/A
6:55 pm 18:55 Sunny 79 26.2 29 -1.8 16 16 NW 12 19 29.65 1004 10 16 N/A
7:15 pm 19:15 Sunny 78 25.5 29 -1.7 17 17 NW 6 9 29.64 1004 10 16 N/A
7:35 pm 19:35 Sunny 75 24.1 29 -1.4 18 18 NW 6 9 29.66 1005 10 16 N/A
7:55 pm 19:55 Sunny 73 22.6 29 -1.4 20 20 W 3 6 29.68 1005 10 16 N/A
8:15 pm 20:15 Clear 71 21.5 29 -1.4 22 22 N N/A 29.69 1005 10 16 N/A
8:35 pm 20:35 Clear 69 20.7 30 -1.1 23 23 SW 5 7 29.69 1005 10 16 N/A
8:55 pm 20:55 Clear 65 18.1 31 -0.4 29 29 N N/A 29.71 1006 7 11 N/A
9:15 pm 21:15 Clear 62 16.8 31 -0.3 31 31 SSW 3 6 29.73 1007 10 16 N/A
9:35 pm 21:35 Clear 56 13.5 31 -0.5 38 38 N N/A 29.76 1008 10 16 N/A
9:55 pm 21:55 Clear 61 16.2 30 -1.1 31 31 N N/A 29.75 1007 10 16 N/A
10:15 pm 22:15 Clear 57 14.1 30 -0.9 36 36 SSW 6 9 29.77 1008 10 16 N/A
10:35 pm 22:35 Clear 58 14.5 31 -0.7 35 35 SW 6 9 29.76 1008 10 16 N/A
10:55 pm 22:55 Clear 59 15.1 31 -0.5 35 35 SW 5 7 29.76 1008 10 16 N/A
11:15 pm 23:15 Clear 61 16.1 30 -0.9 32 32 SW 5 7 29.75 1007 10 16 N/A
11:35 pm 23:35 Clear 59 15.2 30 -0.9 33 33 SSW 6 9 29.75 1007 10 16 N/A
11:55 pm 23:55 Clear 60 15.5 29 -1.5 31 31 SSW 5 7 29.76 1008 10 16 N/A

Powered by AerisWeather